UAE11A OMDB-OPKC

Flight info

Callsign UAE11A
Flight time N/A
Altitude 37000
Route IVURO M428 TARBO Z440 DAMUM B524 ALPOR G216 LAKIV
Aircraft A359/H-SDE2E3GHIJ3J4J5LM1ORWXY/LB1D1

Departure

Time N/A
Airport Dubai International Airport (OMDB)

Arrival

Time 2026-04-29 13:16
Airport Jinnah International Airport (OPKC)
Time Latitude Longitude Altitude Speed Heading
2026-04-29 13:00 24.65574 66.58823 15770 ft 329 kts 81°
2026-04-29 13:01 24.65816 66.61311 15698 ft 327 kts 81°
2026-04-29 13:01 24.66055 66.63796 15695 ft 327 kts 81°
2026-04-29 13:01 24.66266 66.66280 15694 ft 327 kts 82°
2026-04-29 13:01 24.66458 66.68770 15698 ft 327 kts 82°
2026-04-29 13:02 24.66638 66.71252 15647 ft 323 kts 83°
2026-04-29 13:02 24.66809 66.73710 15247 ft 323 kts 83°
2026-04-29 13:02 24.66978 66.76175 14813 ft 324 kts 83°
2026-04-29 13:02 24.67145 66.78639 14438 ft 322 kts 83°
2026-04-29 13:03 24.67306 66.81065 13914 ft 316 kts 83°
2026-04-29 13:03 24.67469 66.83462 13231 ft 313 kts 83°
2026-04-29 13:03 24.67892 66.85803 12267 ft 315 kts 69°
2026-04-29 13:03 24.68633 66.88076 11796 ft 327 kts 66°
2026-04-29 13:04 24.69450 66.90376 11039 ft 321 kts 66°
2026-04-29 13:04 24.70293 66.92681 10019 ft 327 kts 65°
2026-04-29 13:04 24.71134 66.94962 9423 ft 315 kts 65°
2026-04-29 13:04 24.71948 66.97158 8731 ft 307 kts 65°
2026-04-29 13:05 24.72753 66.99319 7957 ft 304 kts 65°
2026-04-29 13:05 24.73553 67.01464 7204 ft 302 kts 66°
2026-04-29 13:05 24.74348 67.03594 6458 ft 300 kts 66°
2026-04-29 13:05 24.75141 67.05713 5705 ft 298 kts 66°
2026-04-29 13:06 24.75924 67.07805 4997 ft 294 kts 66°
2026-04-29 13:06 24.76694 67.09876 4257 ft 291 kts 66°
2026-04-29 13:06 24.77463 67.11936 3520 ft 289 kts 68°
2026-04-29 13:06 24.78213 67.13975 3035 ft 286 kts 68°
2026-04-29 13:07 24.78964 67.15997 2925 ft 285 kts 68°
2026-04-29 13:07 24.79721 67.18028 2970 ft 288 kts 68°
2026-04-29 13:07 24.80480 67.20061 2991 ft 286 kts 68°
2026-04-29 13:07 24.81232 67.22085 2995 ft 287 kts 69°
2026-04-29 13:08 24.81990 67.24127 2995 ft 289 kts 69°
2026-04-29 13:08 24.82747 67.26169 2992 ft 287 kts 69°
2026-04-29 13:08 24.83500 67.28200 2995 ft 287 kts 69°
2026-04-29 13:08 24.84242 67.30207 2991 ft 288 kts 68°
2026-04-29 13:09 24.85000 67.32245 2998 ft 288 kts 68°
2026-04-29 13:09 24.85763 67.34305 2993 ft 286 kts 68°
2026-04-29 13:09 24.86510 67.36305 2989 ft 286 kts 68°
2026-04-29 13:09 24.87606 67.38165 2984 ft 288 kts 43°
2026-04-29 13:10 24.89336 67.39190 2994 ft 281 kts 10°
2026-04-29 13:10 24.91176 67.39125 2987 ft 261 kts 345°
2026-04-29 13:10 24.92897 67.38628 2982 ft 247 kts 340°
2026-04-29 13:10 24.94375 67.37892 2975 ft 221 kts 317°
2026-04-29 13:11 24.95244 67.36657 2982 ft 195 kts 288°
2026-04-29 13:11 24.95438 67.35244 2993 ft 183 kts 262°
2026-04-29 13:11 24.95225 67.33879 2993 ft 180 kts 254°
2026-04-29 13:11 24.94935 67.32540 2992 ft 178 kts 254°
2026-04-29 13:12 24.94656 67.31237 2822 ft 172 kts 257°
2026-04-29 13:12 24.94405 67.29941 2395 ft 170 kts 257°
2026-04-29 13:12 24.94241 67.28694 2118 ft 159 kts 261°
2026-04-29 13:12 24.94112 67.27520 1825 ft 150 kts 259°
2026-04-29 13:13 24.93820 67.26473 1592 ft 137 kts 245°
2026-04-29 13:13 24.93450 67.25531 1343 ft 132 kts 248°
2026-04-29 13:13 24.93135 67.24620 1171 ft 123 kts 251°
2026-04-29 13:13 24.92850 67.23699 988 ft 130 kts 250°
2026-04-29 13:14 24.92589 67.22803 871 ft 118 kts 251°
2026-04-29 13:14 24.92350 67.21942 789 ft 117 kts 252°
2026-04-29 13:14 24.92109 67.21065 715 ft 122 kts 252°
2026-04-29 13:14 24.91866 67.20177 649 ft 119 kts 254°
2026-04-29 13:15 24.91648 67.19281 409 ft 118 kts 250°
2026-04-29 13:15 24.91408 67.18479 295 ft 108 kts 247°
2026-04-29 13:15 24.91214 67.17679 135 ft 110 kts 253°
2026-04-29 13:15 24.91017 67.16923 110 ft 79 kts 257°
2026-04-29 13:16 24.90901 67.16447 108 ft 61 kts 253°
2026-04-29 13:16 24.90779 67.15965 108 ft 61 kts 256°
2026-04-29 13:16 24.90558 67.15718 110 ft 30 kts 178°
2026-04-29 13:16 24.90522 67.15717 108 ft 0 kts 176°
2026-04-29 13:20 24.90468 67.15734 108 ft 20 kts 163°
2026-04-29 13:20 24.90285 67.15791 107 ft 25 kts 154°
2026-04-29 13:21 24.90287 67.15950 106 ft 34 kts 73°
2026-04-29 13:21 24.90331 67.16124 107 ft 12 kts 75°
2026-04-29 13:21 24.90355 67.16222 105 ft 9 kts 75°
2026-04-29 13:21 24.90371 67.16283 106 ft 15 kts 73°
2026-04-29 13:22 24.90406 67.16425 108 ft 32 kts 75°
2026-04-29 13:22 24.90454 67.16652 105 ft 31 kts 100°
2026-04-29 13:22 24.90346 67.16760 105 ft 23 kts 126°
2026-04-29 13:22 24.90306 67.16826 106 ft 2 kts 124°
2026-04-29 13:23 24.90294 67.16845 105 ft 4 kts 125°
2026-04-29 13:23 24.90291 67.16848 105 ft 0 kts 125°